Temp
-12 -12 -13 -13 -13 -13 -13 -13 -13 -13 -13 -13 -13 -13 -13 -12 -12 -12 -12 -12 -11 -11 -11 -11 -11 -11 -11 -11 -13 -12 -11 -11 -10 -11 -11 -12 -12 -13 -13 -13 -13 -13 -12 -12 -12 -13 -12
-12 -12 -13 -13 -13 -13 -13 -13 -13 -13 -13 -13 -13 -13 -13 -13 -13 -13 -13 -13 -12 -11 -11 -11 -11 -11 -11 -12 -12 -12 -12 -11 -11 -12 -12 -13 -13 -14 -14 -14 -14 -14 -13 -13 -13 -13 -12
-12 -12 -12 -13 -13 -13 -13 -13 -13 -13 -13 -13 -13 -14 -14 -14 -14 -13 -13 -13 -13 -12 -12 -12 -12 -12 -11 -13 -12 -12 -12 -12 -13 -14 -14 -15 -15 -15 -15 -15 -14 -14 -14 -13 -13 -12 -12
-12 -12 -12 -13 -13 -13 -13 -13 -13 -13 -13 -13 -14 -13 -13 -14 -14 -14 -14 -14 -14 -14 -14 -13 -13 -13 -12 -13 -13 -14 -14 -14 -15 -14 -14 -15 -16 -16 -16 -16 -15 -15 -15 -14 -12 -12 -13
-13 -13 -12 -13 -13 -13 -13 -13 -14 -14 -14 -14 -14 -14 -14 -14 -14 -14 -15 -15 -15 -15 -14 -14 -14 -14 -13 -14 -15 -14 -14 -15 -15 -16 -16 -16 -16 -16 -16 -16 -16 -16 -15 -15 -14 -14 -14
-13 -13 -13 -13 -14 -14 -13 -14 -14 -14 -14 -14 -14 -14 -14 -15 -15 -15 -15 -16 -16 -15 -15 -15 -16 -15 -15 -15 -14 -14 -15 -15 -16 -16 -16 -17 -17 -17 -16 -16 -16 -16 -16 -15 -15 -14 -15
-13 -13 -13 -14 -15 -14 -14 -14 -14 -14 -14 -14 -14 -14 -15 -16 -16 -16 -16 -16 -16 -16 -17 -17 -16 -15 -15 -15 -15 -15 -16 -16 -16 -18 -19 -21 -20 -18 -19 -20 -20 -19 -18 -17 -16 -16 -17
-14 -14 -14 -14 -15 -14 -14 -14 -15 -14 -14 -14 -14 -15 -16 -17 -17 -17 -16 -17 -16 -16 -15 -16 -15 -15 -15 -16 -15 -17 -18 -20 -21 -21 -22 -22 -21 -21 -21 -22 -21 -20 -20 -19 -17 -16 -18
-14 -14 -15 -14 -14 -15 -15 -15 -15 -15 -15 -14 -15 -16 -16 -18 -17 -17 -17 -17 -17 -16 -16 -15 -16 -15 -15 -16 -16 -18 -23 -23 -24 -24 -23 -23 -22 -22 -22 -22 -22 -21 -21 -20 -18 -18 -18
-15 -15 -14 -15 -15 -15 -16 -15 -15 -15 -15 -15 -16 -16 -17 -18 -18 -17 -17 -17 -17 -17 -16 -16 -16 -16 -16 -18 -19 -23 -25 -24 -24 -24 -24 -24 -23 -23 -23 -23 -22 -22 -21 -21 -20 -20 -19
-15 -15 -14 -15 -15 -16 -16 -15 -15 -16 -16 -16 -16 -17 -18 -19 -18 -18 -18 -18 -18 -17 -17 -17 -18 -17 -18 -21 -23 -24 -25 -24 -23 -24 -24 -23 -23 -23 -23 -23 -24 -21 -22 -21 -21 -19 -18
-15 -16 -15 -15 -15 -16 -16 -15 -16 -16 -17 -17 -17 -18 -20 -19 -19 -19 -18 -18 -17 -17 -17 -18 -20 -21 -23 -24 -24 -24 -25 -26 -24 -23 -24 -23 -23 -24 -23 -23 -23 -23 -22 -21 -20 -20 -18
-16 -16 -16 -16 -16 -16 -16 -16 -17 -17 -17 -18 -19 -20 -19 -19 -19 -18 -19 -18 -18 -18 -18 -20 -21 -23 -23 -22 -23 -23 -23 -23 -23 -23 -23 -23 -23 -23 -23 -23 -22 -22 -22 -21 -20 -19 -18
-17 -17 -16 -17 -17 -17 -16 -17 -17 -17 -18 -19 -20 -20 -20 -19 -19 -19 -19 -18 -18 -18 -20 -23 -23 -23 -23 -22 -22 -22 -22 -23 -23 -23 -24 -23 -22 -22 -22 -22 -22 -22 -21 -21 -20 -19 -17
-17 -17 -17 -17 -17 -17 -17 -18 -18 -18 -19 -20 -21 -20 -20 -20 -19 -20 -19 -19 -19 -19 -21 -22 -23 -22 -22 -22 -22 -22 -22 -23 -23 -23 -23 -23 -22 -22 -22 -22 -22 -22 -21 -21 -20 -19 -18
-18 -18 -17 -17 -17 -17 -18 -18 -18 -20 -20 -21 -21 -20 -20 -20 -20 -20 -19 -20 -20 -21 -23 -23 -23 -22 -21 -22 -22 -23 -23 -23 -23 -23 -22 -22 -22 -21 -21 -22 -22 -21 -21 -20 -19 -19 -18
-19 -19 -18 -18 -18 -19 -19 -19 -20 -21 -21 -21 -21 -21 -20 -20 -20 -20 -20 -20 -21 -22 -23 -23 -23 -23 -22 -22 -22 -23 -23 -23 -23 -23 -23 -22 -21 -21 -21 -21 -21 -20 -20 -19 -19 -19 -18
-19 -19 -19 -19 -20 -20 -19 -20 -21 -22 -22 -21 -21 -21 -21 -21 -20 -21 -20 -20 -21 -22 -23 -23 -23 -23 -22 -22 -22 -23 -22 -21 -22 -22 -22 -21 -21 -20 -20 -20 -20 -20 -20 -20 -19 -18 -17
-20 -19 -19 -21 -20 -20 -20 -21 -22 -22 -22 -22 -21 -21 -21 -21 -21 -20 -21 -21 -22 -23 -23 -24 -23 -22 -22 -22 -22 -22 -23 -22 -21 -22 -22 -21 -21 -21 -20 -20 -20 -20 -20 -19 -19 -19 -18
-20 -21 -22 -21 -21 -21 -21 -22 -23 -23 -22 -22 -22 -22 -21 -21 -21 -21 -21 -22 -22 -23 -23 -24 -23 -23 -22 -21 -22 -22 -22 -22 -21 -21 -22 -21 -21 -21 -20 -20 -20 -20 -19 -19 -19 -19 -19
-22 -23 -23 -22 -22 -22 -22 -22 -24 -23 -22 -22 -22 -22 -22 -22 -21 -21 -21 -22 -22 -23 -23 -24 -24 -23 -23 -22 -22 -22 -22 -22 -21 -21 -21 -21 -21 -20 -20 -20 -20 -19 -19 -19 -19 -19 -19
-23 -23 -23 -22 -22 -22 -23 -24 -24 -23 -23 -23 -22 -22 -22 -22 -21 -21 -22 -22 -22 -23 -23 -24 -24 -23 -23 -22 -22 -22 -22 -22 -22 -22 -21 -21 -21 -20 -19 -19 -19 -20 -19 -19 -19 -19 -20
-23 -23 -22 -22 -23 -24 -25 -24 -24 -23 -23 -23 -23 -23 -22 -22 -22 -22 -22 -22 -23 -23 -23 -24 -24 -24 -24 -23 -22 -22 -22 -22 -22 -22 -21 -21 -22 -21 -21 -20 -20 -20 -20 -20 -20 -20 -20
-24 -23 -23 -22 -23 -24 -24 -24 -23 -24 -24 -23 -23 -23 -22 -22 -22 -22 -22 -23 -23 -23 -23 -23 -24 -24 -24 -24 -23 -23 -22 -22 -22 -22 -22 -22 -22 -22 -21 -21 -21 -21 -20 -20 -20 -20 -20
-23 -23 -23 -23 -24 -24 -24 -24 -24 -24 -24 -24 -23 -23 -23 -22 -22 -23 -23 -23 -23 -23 -23 -23 -24 -24 -24 -24 -24 -24 -23 -22 -22 -22 -22 -22 -22 -22 -21 -21 -21 -21 -21 -21 -21 -21 -21
-25 -24 -23 -23 -24 -24 -24 -24 -25 -24 -24 -24 -23 -23 -23 -23 -23 -23 -23 -24 -24 -24 -23 -24 -24 -24 -24 -24 -24 -24 -23 -23 -23 -23 -23 -22 -23 -22 -22 -21 -22 -22 -21 -21 -21 -21 -21
-24 -24 -25 -25 -25 -25 -25 -25 -25 -25 -24 -24 -24 -23 -23 -23 -24 -24 -24 -24 -24 -24 -24 -24 -25 -25 -24 -24 -24 -24 -24 -23 -23 -23 -23 -23 -23 -22 -23 -22 -22 -22 -22 -21 -21 -21 -21
-25 -25 -25 -25 -25 -25 -25 -25 -25 -25 -24 -24 -24 -23 -23 -24 -24 -24 -24 -24 -24 -24 -24 -24 -25 -25 -25 -24 -24 -25 -25 -24 -24 -24 -24 -23 -23 -23 -22 -22 -22 -22 -22 -22 -22 -21 -21
-24 -25 -25 -25 -25 -25 -26 -26 -26 -25 -25 -24 -24 -24 -24 -24 -24 -24 -24 -25 -25 -25 -24 -24 -25 -26 -26 -25 -25 -24 -24 -25 -24 -24 -23 -23 -23 -23 -22 -22 -22 -22 -22 -22 -22 -22 -22
Height
5735 5735 5735 5736 5736 5736 5737 5736 5736 5735 5735 5735 5735 5736 5736 5735 5735 5734 5734 5734 5734 5733 5732 5732 5732 5732 5733 5732 5728 5724 5725 5724 5724 5722 5720 5719 5717 5715 5718 5719 5713 5710 5729 5725 5737 5735 5741
5724 5725 5725 5727 5727 5727 5727 5727 5727 5727 5726 5726 5726 5726 5726 5725 5724 5724 5724 5725 5726 5724 5722 5721 5720 5721 5722 5719 5717 5712 5710 5711 5709 5706 5706 5703 5701 5697 5700 5701 5698 5703 5708 5709 5715 5720 5729
5715 5714 5714 5717 5717 5718 5717 5718 5718 5717 5716 5716 5716 5716 5717 5717 5717 5715 5714 5713 5713 5712 5711 5710 5708 5708 5712 5706 5702 5699 5696 5694 5692 5688 5686 5685 5683 5678 5679 5682 5687 5688 5687 5693 5698 5710 5713
5704 5705 5705 5705 5707 5708 5708 5708 5709 5708 5707 5706 5706 5706 5706 5707 5707 5705 5704 5703 5702 5702 5701 5699 5696 5696 5700 5692 5689 5686 5678 5674 5669 5668 5668 5666 5659 5658 5659 5665 5670 5669 5669 5677 5697 5701 5700
5692 5694 5695 5696 5697 5698 5698 5698 5699 5697 5697 5696 5696 5695 5695 5696 5696 5695 5694 5694 5691 5690 5690 5687 5684 5684 5686 5679 5672 5664 5659 5654 5650 5646 5644 5640 5636 5638 5642 5645 5647 5651 5651 5661 5681 5676 5682
5681 5682 5685 5685 5686 5688 5689 5688 5687 5687 5686 5684 5683 5684 5684 5685 5686 5686 5686 5685 5681 5680 5679 5676 5670 5672 5668 5664 5654 5646 5638 5633 5629 5624 5617 5614 5611 5616 5621 5619 5621 5638 5640 5650 5661 5671 5669
5668 5671 5672 5673 5675 5676 5677 5677 5677 5677 5675 5674 5673 5674 5674 5674 5675 5677 5680 5676 5675 5674 5671 5663 5660 5655 5651 5647 5636 5627 5610 5603 5598 5593 5592 5593 5587 5592 5603 5604 5609 5616 5619 5627 5641 5653 5656
5653 5658 5661 5661 5663 5665 5666 5665 5666 5665 5665 5663 5663 5663 5663 5664 5667 5668 5669 5667 5665 5662 5660 5651 5648 5639 5634 5623 5619 5597 5584 5573 5572 5567 5572 5572 5571 5583 5588 5589 5593 5598 5604 5614 5628 5637 5646
5639 5645 5646 5649 5650 5652 5653 5653 5655 5654 5652 5652 5653 5654 5655 5656 5657 5660 5660 5658 5654 5651 5646 5639 5635 5626 5612 5597 5585 5575 5563 5556 5555 5553 5559 5556 5570 5572 5574 5578 5581 5586 5592 5605 5617 5629 5633
5623 5629 5633 5635 5638 5639 5639 5642 5643 5641 5642 5642 5644 5645 5647 5650 5652 5652 5650 5647 5644 5640 5633 5626 5616 5606 5591 5574 5565 5555 5551 5547 5549 5547 5549 5547 5558 5559 5565 5570 5574 5577 5589 5599 5611 5619 5623
5606 5616 5618 5620 5620 5622 5627 5630 5630 5630 5631 5633 5634 5637 5641 5642 5643 5644 5643 5639 5635 5630 5622 5611 5597 5589 5574 5558 5541 5552 5546 5541 5540 5541 5542 5545 5547 5553 5556 5565 5569 5575 5588 5595 5605 5604 5616
5590 5598 5601 5603 5605 5609 5615 5618 5618 5620 5622 5624 5626 5629 5634 5636 5636 5636 5634 5630 5625 5621 5612 5601 5584 5573 5567 5556 5548 5541 5536 5534 5536 5537 5538 5538 5540 5545 5551 5560 5565 5574 5584 5587 5595 5603 5606
5574 5580 5582 5587 5592 5599 5603 5606 5607 5612 5614 5615 5619 5623 5627 5629 5629 5629 5625 5622 5618 5610 5598 5589 5579 5569 5561 5557 5553 5545 5540 5538 5532 5535 5535 5534 5537 5543 5547 5556 5562 5569 5575 5582 5590 5595 5608
5557 5564 5572 5576 5580 5588 5592 5595 5599 5604 5606 5608 5612 5617 5620 5621 5622 5619 5617 5614 5607 5600 5589 5580 5574 5567 5561 5557 5556 5549 5542 5538 5535 5534 5534 5534 5539 5546 5551 5556 5564 5566 5573 5581 5587 5595 5603
5545 5554 5560 5565 5571 5578 5582 5586 5591 5594 5598 5602 5607 5611 5613 5615 5615 5613 5611 5606 5600 5591 5584 5579 5573 5568 5566 5562 5554 5548 5541 5536 5533 5533 5534 5536 5541 5546 5551 5557 5561 5568 5572 5584 5589 5594 5600
5540 5543 5548 5554 5562 5568 5573 5578 5583 5586 5591 5597 5602 5605 5607 5608 5607 5607 5604 5597 5591 5585 5579 5573 5568 5565 5563 5561 5557 5550 5543 5538 5537 5535 5537 5540 5543 5546 5551 5556 5559 5564 5574 5578 5584 5591 5595
5528 5533 5538 5545 5553 5559 5563 5570 5574 5580 5586 5592 5596 5600 5601 5602 5603 5601 5596 5592 5586 5581 5576 5572 5568 5565 5565 5562 5557 5552 5548 5544 5541 5540 5541 5543 5545 5549 5552 5556 5561 5565 5568 5572 5582 5587 5591
5518 5523 5529 5536 5543 5549 5556 5562 5568 5575 5581 5586 5590 5593 5595 5597 5598 5594 5590 5587 5582 5577 5573 5571 5568 5565 5565 5563 5560 5554 5550 5547 5547 5545 5545 5544 5544 5551 5556 5558 5561 5563 5568 5574 5577 5584 5589
5509 5514 5521 5526 5535 5542 5549 5555 5562 5569 5575 5580 5583 5587 5589 5591 5590 5588 5585 5582 5578 5575 5573 5570 5567 5564 5563 5562 5562 5557 5552 5551 5550 5549 5549 5550 5550 5554 5557 5561 5563 5566 5570 5574 5577 5582 5586
5498 5505 5511 5520 5528 5535 5543 5549 5557 5565 5570 5574 5578 5582 5584 5585 5584 5583 5580 5578 5575 5573 5571 5568 5566 5565 5562 5560 5559 5557 5555 5555 5553 5552 5553 5553 5553 5555 5558 5561 5563 5566 5569 5573 5579 5581 5587
5492 5498 5505 5514 5521 5529 5537 5545 5552 5559 5564 5569 5573 5576 5579 5580 5579 5578 5576 5575 5572 5571 5570 5568 5567 5564 5563 5561 5558 5557 5557 5557 5555 5553 5555 5555 5556 5557 5557 5560 5563 5566 5570 5571 5572 5579 5579
5488 5495 5502 5509 5515 5524 5531 5539 5547 5553 5559 5563 5567 5570 5573 5574 5574 5574 5573 5571 5569 5568 5568 5567 5566 5564 5563 5561 5559 5558 5559 5556 5555 5555 5557 5556 5558 5557 5557 5562 5564 5565 5568 5570 5573 5577 5579
5481 5489 5497 5504 5512 5518 5527 5534 5541 5547 5553 5557 5562 5565 5568 5569 5569 5570 5569 5567 5567 5564 5564 5564 5564 5564 5563 5561 5559 5558 5558 5557 5556 5556 5557 5557 5558 5560 5558 5557 5563 5567 5568 5571 5573 5575 5578
5479 5487 5493 5499 5506 5513 5521 5529 5536 5542 5548 5552 5557 5560 5563 5563 5564 5565 5565 5564 5562 5560 5560 5560 5561 5562 5563 5560 5559 5558 5557 5557 5556 5556 5557 5558 5558 5561 5561 5563 5565 5566 5571 5573 5574 5576 5579
5475 5483 5487 5494 5502 5509 5516 5523 5531 5537 5542 5547 5551 5555 5557 5558 5560 5561 5561 5560 5558 5558 5557 5557 5556 5560 5561 5561 5560 5558 5556 5556 5556 5555 5556 5556 5558 5560 5564 5564 5567 5568 5571 5573 5575 5577 5577
5469 5476 5483 5489 5496 5504 5512 5518 5526 5532 5537 5542 5547 5550 5553 5555 5556 5557 5556 5556 5555 5554 5554 5554 5554 5556 5558 5559 5559 5558 5558 5557 5556 5556 5555 5556 5557 5561 5563 5565 5567 5568 5569 5572 5573 5575 5576
5464 5471 5477 5484 5492 5499 5507 5514 5520 5526 5532 5538 5541 5545 5548 5550 5552 5553 5552 5552 5552 5551 5551 5550 5551 5552 5555 5557 5558 5559 5558 5559 5558 5557 5556 5556 5558 5559 5562 5564 5566 5567 5569 5569 5572 5576 5574
5460 5466 5473 5480 5488 5495 5502 5509 5515 5522 5528 5533 5537 5541 5544 5546 5548 5548 5548 5548 5548 5548 5547 5547 5548 5548 5550 5553 5556 5558 5558 5558 5558 5558 5558 5559 5560 5561 5563 5564 5567 5567 5569 5570 5571 5570 5571
5454 5462 5469 5476 5482 5491 5498 5504 5510 5518 5523 5529 5534 5537 5539 5542 5544 5544 5544 5545 5544 5544 5544 5544 5544 5544 5546 5549 5552 5555 5557 5558 5559 5558 5559 5561 5562 5562 5564 5564 5564 5565 5566 5567 5568 5568 5568
Wind_Speed
40 40 41 44 41 40 41 42 43 40 42 43 43 44 46 51 50 45 38 39 38 42 44 45 44 43 44 44 41 47 48 49 52 58 61 62 63 59 56 56 59 63 55 64 65 63 58
44 43 41 40 44 44 46 46 46 45 43 43 44 40 42 38 39 39 38 37 41 47 47 47 45 46 45 45 47 50 52 56 62 63 68 64 63 61 62 60 62 61 58 59 62 67 63
46 47 47 45 44 49 47 50 48 46 45 46 44 41 42 40 39 38 38 42 46 46 47 45 44 44 43 48 51 54 60 64 67 64 64 63 64 62 62 62 61 61 64 63 60 62 68
51 51 52 47 47 47 46 48 53 53 52 49 47 45 44 44 44 42 42 43 43 44 44 44 45 47 46 53 55 60 64 66 67 69 70 68 65 64 63 61 61 63 66 67 52 56 64
57 55 54 54 48 49 53 53 53 59 58 53 52 50 47 46 45 45 42 42 42 41 43 45 47 51 52 56 60 66 72 72 72 73 74 73 70 70 70 69 68 66 67 64 58 61 59
60 57 55 59 50 50 55 60 58 62 63 60 57 52 49 46 45 43 42 41 41 41 42 48 50 54 56 61 70 75 76 75 75 76 78 76 70 72 74 74 75 67 65 61 59 58 56
62 64 59 61 52 55 59 55 56 62 63 63 61 54 47 42 41 43 42 40 39 40 42 47 53 59 63 67 73 74 80 83 77 70 64 54 57 66 54 50 51 57 64 63 58 52 48
67 63 62 63 56 55 62 59 52 52 63 67 63 54 44 38 38 39 40 39 39 41 43 51 58 64 69 73 73 72 71 64 58 57 53 52 54 43 38 40 46 50 55 57 57 54 29
64 63 61 59 57 60 53 50 51 56 66 70 53 42 38 34 33 35 37 37 40 43 49 57 62 67 71 74 73 66 45 39 39 43 42 50 40 37 36 36 40 46 49 48 49 46 41
64 64 58 62 58 52 50 54 55 58 64 58 44 41 34 28 29 34 35 37 41 45 51 61 65 65 67 62 58 47 39 23 25 26 28 40 33 37 31 28 33 40 39 41 36 36 43
61 65 67 65 56 48 51 56 58 56 60 45 39 31 25 25 30 31 33 36 41 46 56 59 60 61 57 45 45 16 24 31 22 23 25 24 30 29 27 20 7 27 27 29 32 40 42
61 66 69 67 55 51 53 56 53 55 46 37 30 22 22 25 27 30 32 37 42 47 53 55 48 46 30 28 30 29 21 34 26 26 25 19 22 24 22 21 17 16 25 29 34 37 40
66 73 67 50 42 44 45 52 47 48 39 27 20 19 21 25 26 29 31 37 42 47 51 46 41 32 25 27 23 25 17 14 26 15 10 12 19 23 23 20 21 30 30 32 33 34 40
63 73 68 43 36 41 49 46 44 41 28 19 16 18 20 22 25 26 30 35 41 46 43 31 27 28 33 24 17 21 16 13 13 13 9 14 20 16 22 24 23 28 32 29 31 34 32
53 43 42 37 40 45 50 44 42 30 20 16 15 16 18 20 22 22 28 33 37 40 37 28 19 26 24 31 31 25 14 17 4 8 12 17 23 22 16 19 24 28 30 27 26 27 24
40 40 38 42 47 48 44 41 34 22 18 15 15 15 17 17 18 20 25 29 31 31 24 23 23 23 25 27 26 20 12 9 7 6 16 16 10 12 16 21 24 21 17 29 30 20 13
40 40 39 40 42 45 43 37 28 21 17 17 14 15 14 15 14 17 21 25 25 24 21 21 22 28 31 32 30 18 11 8 5 9 15 3 8 8 22 10 11 17 22 25 27 26 25
37 37 40 38 44 46 41 34 23 19 18 15 14 12 12 12 13 13 18 21 21 21 19 19 23 28 29 25 25 5 5 18 5 12 2 12 14 15 9 10 12 16 18 31 26 26 11
33 37 37 44 48 44 37 28 22 20 18 15 12 12 12 11 11 11 14 17 15 17 18 16 21 23 25 20 16 11 3 6 6 10 12 3 13 10 11 12 11 14 20 27 26 26 12
29 34 43 50 47 41 33 26 23 21 18 14 12 10 11 9 9 10 12 14 13 13 17 14 18 20 25 24 15 3 7 4 10 12 11 2 5 9 11 9 11 13 14 28 18 17 19
29 41 51 51 44 37 31 27 23 21 18 15 11 10 11 9 9 9 10 11 10 11 14 15 16 18 21 18 13 3 11 5 8 13 11 11 7 3 6 8 15 11 16 14 24 20 18
36 43 52 47 42 36 32 27 26 23 19 15 12 12 11 9 8 9 9 8 9 12 13 12 11 14 19 14 13 13 2 6 2 7 4 5 7 9 12 14 19 13 28 11 18 23 16
39 46 51 48 39 35 32 30 26 25 18 16 14 14 13 10 9 9 9 8 9 11 13 17 11 9 14 10 7 14 13 8 5 3 9 9 6 6 23 24 18 15 19 18 16 20 17
46 52 49 46 39 34 33 31 26 23 18 18 17 16 15 12 10 10 10 10 10 11 12 17 17 9 9 10 6 12 10 8 5 6 5 10 9 3 7 8 16 13 6 7 14 12 14
37 40 39 38 37 37 33 29 26 21 21 20 19 19 17 13 11 12 12 11 10 11 13 14 16 13 11 9 4 6 11 8 10 9 8 10 12 2 7 15 19 8 6 7 9 12 14
28 34 37 35 34 32 33 29 25 23 23 21 22 19 17 14 11 14 11 11 11 11 13 13 12 16 11 5 4 2 5 9 6 5 5 7 10 10 9 18 11 5 2 6 8 11 14
31 33 34 34 36 36 32 29 27 26 24 23 22 20 18 15 14 15 12 11 11 11 11 13 9 12 18 10 1 2 5 6 3 5 11 11 9 7 8 7 10 5 3 6 6 8 9
32 32 36 37 35 35 31 30 29 27 26 24 21 20 18 18 15 15 12 12 11 11 12 13 11 10 16 19 13 7 3 7 3 5 5 7 7 4 4 3 5 5 6 7 6 6 8
36 35 36 39 37 35 34 32 30 28 26 25 22 19 20 17 16 14 12 12 11 12 13 12 12 10 12 17 18 17 12 4 4 6 4 6 3 5 5 4 3 5 9 11 12 12 11
Wind_Direction
281 283 282 280 282 274 275 278 279 281 278 275 275 272 270 273 274 269 270 274 277 275 275 277 274 276 277 280 285 287 285 284 284 285 284 282 279 273 267 263 257 258 256 253 249 248 246
281 283 283 281 282 282 276 276 278 279 278 277 280 280 277 281 276 272 268 273 274 274 272 273 273 276 279 292 288 288 290 290 286 284 281 280 278 274 269 262 256 258 254 250 247 246 243
279 282 283 284 278 284 287 281 279 278 281 279 280 277 274 277 273 270 268 266 270 274 275 275 279 281 282 288 288 288 288 286 282 282 280 277 274 271 270 265 259 254 253 252 246 247 244
275 276 280 278 278 280 284 287 284 279 279 279 277 275 274 275 273 273 274 275 277 276 277 280 284 285 285 286 288 288 291 291 289 285 280 277 276 272 269 265 260 255 253 249 250 252 246
271 273 277 277 277 280 285 284 291 280 279 274 273 272 271 273 272 273 275 275 276 279 282 285 288 287 288 293 294 294 293 290 287 284 280 276 273 273 272 271 262 254 251 250 241 246 245
266 270 274 274 276 276 279 285 287 286 277 272 268 266 269 270 273 275 276 277 281 283 287 291 297 296 295 295 293 291 290 286 282 281 278 275 271 269 268 265 263 260 253 251 245 244 249
264 270 271 272 267 273 277 280 285 286 274 272 267 265 266 269 273 276 278 282 290 293 297 298 300 298 299 297 297 295 292 287 284 275 269 265 262 265 263 266 261 251 244 238 238 240 250
259 262 267 267 270 270 278 276 287 279 275 271 265 261 263 267 272 279 285 289 293 299 298 302 302 303 302 300 299 297 292 285 274 266 261 255 255 262 261 256 249 242 240 237 234 230 218
259 256 262 263 266 270 271 281 282 276 274 269 262 263 264 267 278 286 289 296 303 306 309 306 308 307 307 309 308 302 291 279 276 265 263 259 256 255 253 250 246 239 234 230 231 231 214
254 257 255 258 263 265 270 275 279 274 274 259 258 263 266 278 287 290 297 303 309 313 315 318 318 320 319 311 305 300 282 270 274 269 276 259 248 246 241 254 245 240 232 225 224 226 220
242 247 253 250 255 260 267 270 277 273 266 252 254 260 272 283 289 297 302 309 312 316 325 326 328 327 328 315 319 296 280 259 249 294 274 268 250 242 226 225 217 232 221 216 208 225 221
252 243 253 255 258 258 262 267 270 266 246 245 249 259 273 285 294 300 307 314 320 325 329 334 335 330 324 330 331 334 286 251 263 277 251 278 233 208 216 205 198 174 192 199 214 213 233
255 250 254 256 256 260 262 264 263 250 241 241 251 265 279 290 297 301 316 322 328 337 340 342 340 341 343 340 332 327 321 266 278 248 283 249 200 196 206 180 185 167 204 209 207 221 226
258 251 257 252 256 263 259 259 251 236 235 238 251 270 283 297 300 315 325 329 342 343 346 341 334 334 337 345 340 339 324 294 304 271 289 192 191 200 201 179 178 184 202 206 211 215 223
257 249 248 252 257 259 255 251 230 225 227 238 255 270 289 298 307 323 328 338 347 350 346 342 329 329 341 341 338 338 337 322 313 243 199 186 188 193 215 196 197 196 212 209 218 229 240
247 240 245 248 246 251 242 219 217 214 223 238 254 273 289 299 312 326 336 350 351 349 339 333 337 333 341 339 346 345 357 29 1 211 180 180 173 204 199 182 195 204 203 207 212 211 211
239 241 242 246 248 237 216 210 209 211 222 240 252 268 286 297 312 330 346 350 351 346 334 341 332 335 345 346 336 336 357 50 355 168 179 2 16 182 191 214 226 201 201 200 173 194 206
237 238 238 239 231 215 207 209 198 210 225 241 252 271 279 290 313 336 346 348 352 340 337 333 334 334 338 344 342 305 91 29 271 198 75 9 5 164 161 214 200 187 188 182 186 191 146
233 235 233 221 212 204 203 196 198 213 227 238 251 265 274 284 314 339 345 345 341 335 328 316 333 336 341 350 336 311 276 334 146 205 288 20 53 154 147 165 219 196 185 181 207 215 208
229 231 213 209 202 200 196 194 200 215 228 234 249 247 261 280 312 331 341 339 338 332 317 326 335 341 341 338 348 209 325 47 198 257 285 321 86 164 173 206 170 195 191 171 189 228 215
227 212 208 201 194 194 193 196 203 216 226 229 235 235 247 273 304 323 336 330 336 299 305 307 323 330 343 332 351 325 328 292 206 224 244 275 241 250 167 185 167 171 168 190 176 199 167
221 214 207 202 197 193 192 197 208 216 222 226 224 232 239 260 297 311 315 314 318 297 287 295 330 334 335 317 305 312 320 330 268 225 78 72 196 72 170 168 181 194 185 180 205 211 209
223 219 210 204 194 190 195 200 209 214 218 218 215 227 234 259 283 291 299 303 292 300 282 275 288 332 332 322 308 306 325 316 111 152 200 192 321 68 125 142 183 172 171 199 201 207 218
219 216 209 200 195 195 197 204 212 212 213 206 217 221 234 250 273 283 286 287 280 297 300 280 267 273 303 343 329 292 306 285 279 275 259 238 256 117 129 125 129 164 186 214 223 232 231
207 208 206 201 197 199 204 206 208 203 203 204 218 221 231 251 271 276 277 288 299 299 296 308 263 253 262 306 324 271 280 268 286 281 263 264 251 316 154 164 154 195 179 205 231 253 256
218 215 209 203 199 200 201 204 201 202 201 207 218 222 234 249 271 270 279 282 290 294 302 314 298 233 224 258 34 262 152 141 112 105 186 235 232 213 192 167 178 218 233 244 237 235 230
211 207 201 204 202 200 202 201 198 195 200 210 220 221 234 251 261 267 271 280 288 292 295 291 294 239 222 225 184 9 147 124 81 125 98 98 96 167 155 171 179 194 235 283 269 253 258
208 207 207 209 203 196 194 194 193 196 205 213 219 224 235 248 258 264 273 281 286 288 285 285 284 255 224 229 231 259 30 124 99 128 118 127 120 111 137 178 217 240 246 252 266 266 267
208 209 205 203 197 196 192 192 196 201 207 211 219 225 234 246 259 266 270 280 285 285 286 285 281 268 226 224 227 238 245 249 238 75 160 193 195 191 211 229 232 245 256 261 263 261 264